[[{"header":{"parameterUnit":"m.s-1","parameterCategory":2,"la1":30.2992,"la2":30.254,"lo1":-89.0895,"lo2":-89.0443,"dy":0.0025,"dx":0.0025,"nx":19,"ny":19,"refTime":"2026-03-19T03:00:00:Z","depth":"0","parameterNumber":2,"parameterNumberName":"U-component_of_CURRENTS"},"data":[0,0,0,0.1441,0.1441,0.1449,0.145,0.1523,0.1524,0,0,0,0,0,0,0,0,0,0,0,0.1436,0.1436,0.1441,0.1441,0.1449,0.145,0.1523,0.1524,0,0,0,0,0,0,0,0,0,0,0,0.1436,0.1436,0.1436,0.1441,0.1449,0.145,0.1523,0.1503,0,0,0,0,0,0,0,0,0,0,0.1487,0.1473,0.1436,0.1436,0.1441,0.1449,0.145,0.1501,0.1504,0.1536,0,0.1528,0,0.1528,0.153,0.153,0,0,0,0.1448,0.147,0.147,0.1436,0.1441,0.1449,0.1448,0.1502,0.1506,0.154,0.1529,0.1532,0.1529,0.153,0.1531,0.1631,0.1631,0,0,0.1447,0.1444,0.1467,0.1472,0.1434,0.1447,0.1448,0.1504,0.1506,0.1529,0.1533,0.153,0.1531,0.1532,0.163,0.1631,0,0,0,0.1442,0.1444,0.1441,0.1469,0.1465,0.1447,0.1448,0.1504,0.1502,0.1534,0.1531,0.1531,0.1532,0.163,0.163,0.1733,0,0,0,0.1442,0.144,0.1441,0.144,0.1464,0.1476,0.1447,0.1498,0.1504,0.1531,0.1531,0.1533,0.1629,0.163,0.1729,0.1749,0,0,0,0.1437,0.144,0.1437,0.144,0.144,0.1475,0.1477,0.1499,0.1503,0.153,0.1534,0.1629,0.163,0.1726,0.1744,0.1848,0,0,0,0.144,0.1448,0.1437,0.1449,0.144,0.1499,0.1476,0.1531,0.1562,0.1532,0.1629,0.163,0.1725,0.1741,0.1844,0.1963,0.1993,0,0,0.1456,0.1449,0.1459,0.145,0.1511,0.1499,0.1581,0.1609,0.1585,0.1615,0.1617,0.173,0.1743,0.1847,0.2024,0.2053,0,0,0,0.1469,0.1482,0.1498,0.1524,0.1556,0.1606,0.164,0.1653,0.1688,0.1603,0.1723,0.1727,0.1791,0.1853,0.1875,0.2009,0.1635,0.1635,0.1635,0.1506,0.1521,0.1559,0.1595,0.1637,0.1704,0.175,0.177,0.176,0.1787,0.1807,0.1944,0.2011,0.2029,0.2165,0.1815,0.1815,0.1815,0.1815,0.1546,0.1557,0.1601,0.1638,0.1697,0.1764,0.185,0.1869,0.1962,0.189,0.1949,0.1951,0.206,0.2196,0.1822,0.1821,0.182,0.1819,0.1819,0.1554,0.1561,0.1586,0.1651,0.1722,0.1793,0.1906,0.1971,0.2025,0.2095,0.2188,0.2187,0.2312,0.2149,0.2149,0.215,0.2151,0.2151,0.2151,0.1535,0.1568,0.1604,0.1669,0.1706,0.1794,0.1949,0.206,0.2242,0.2294,0.2296,0.2386,0.2045,0.2039,0.216,0.2159,0.2157,0.2157,0.2156,0.1518,0.155,0.1595,0.1635,0.1731,0.182,0.1974,0.2246,0.2397,0.2509,0.2706,0.2417,0.2399,0.2381,0.2381,0.2584,0.2584,0.2584,0.2584,0.1502,0.1527,0.1582,0.1641,0.1725,0.183,0.2032,0.2305,0.2704,0.2924,0.2957,0.2927,0.2904,0.2911,0.288,0.2889,0.3216,0.3217,0.3218,0.1491,0.1517,0.1539,0.1614,0.1707,0.1835,0.1996,0.2292,0.2949,0.3251,0.3129,0.3103,0.3057,0.3009,0.3007,0.2953,0.2959,0,0]},{"header":{"parameterUnit":"m.s-1","parameterCategory":2,"la1":30.2992,"la2":30.254,"lo1":-89.0895,"lo2":-89.0443,"dy":0.0025,"dx":0.0025,"nx":19,"ny":19,"refTime":"2026-03-19T03:00:00:Z","depth":"0","parameterNumber":3,"parameterNumberName":"V-component_of_CURRENTS"},"data":[0,0,0,0.1016,0.1013,0.0893,0.0893,0.084,0.0839,0,0,0,0,0,0,0,0,0,0,0,0.1073,0.1072,0.1016,0.1012,0.0893,0.0893,0.084,0.0839,0,0,0,0,0,0,0,0,0,0,0,0.1074,0.1072,0.1071,0.1012,0.0893,0.0893,0.084,0.0911,0,0,0,0,0,0,0,0,0,0,0.1017,0.1073,0.1073,0.1071,0.1011,0.0893,0.0893,0.0914,0.0907,0.0914,0,0.0883,0,0.0843,0.0835,0.0835,0,0,0,0.1037,0.1079,0.1012,0.1071,0.1009,0.0893,0.0954,0.0909,0.0901,0.0905,0.0882,0.0879,0.0842,0.0835,0.0835,0.0827,0.0827,0,0,0.1044,0.1089,0.1017,0.1007,0.0964,0.0958,0.095,0.0904,0.0912,0.0882,0.0877,0.0841,0.0835,0.0834,0.0826,0.0827,0,0,0,0.1046,0.1094,0.1028,0.101,0.097,0.0953,0.0945,0.0915,0.0882,0.0876,0.084,0.0834,0.0834,0.0826,0.0827,0.0929,0,0,0,0.1051,0.1092,0.1031,0.1062,0.097,0.0933,0.0959,0.0887,0.0879,0.0841,0.0834,0.0833,0.0826,0.0826,0.0926,0.099,0,0,0,0.1081,0.1097,0.107,0.1064,0.0994,0.0932,0.0899,0.0884,0.0856,0.0835,0.0833,0.0826,0.0826,0.0922,0.0984,0.1012,0,0,0,0.115,0.113,0.1072,0.1041,0.0995,0.0965,0.0899,0.0896,0.089,0.0834,0.0826,0.0827,0.0921,0.098,0.1009,0.1078,0.1101,0,0,0.1163,0.1134,0.1112,0.1054,0.1033,0.0984,0.0999,0.0958,0.0899,0.0851,0.085,0.0927,0.0983,0.1011,0.1122,0.1143,0,0,0,0.1141,0.1131,0.1114,0.108,0.104,0.1057,0.101,0.0975,0.0938,0.0886,0.0913,0.0946,0.096,0.0994,0.1011,0.0912,0.083,0.083,0.083,0.1214,0.1172,0.1176,0.1141,0.1138,0.1116,0.1122,0.1068,0.1002,0.0996,0.1019,0.1099,0.1136,0.115,0.1047,0.0995,0.0995,0.0996,0.0996,0.1255,0.1245,0.1239,0.1229,0.1232,0.1249,0.1219,0.1184,0.1161,0.1086,0.1094,0.1088,0.1175,0.1058,0.1002,0.1001,0.1,0.1,0.0999,0.1294,0.1293,0.129,0.13,0.1332,0.1322,0.1364,0.133,0.1263,0.1291,0.1282,0.1281,0.1186,0.1278,0.1279,0.1279,0.128,0.128,0.128,0.1329,0.1337,0.1359,0.1366,0.1375,0.1411,0.1444,0.1461,0.1459,0.1412,0.1411,0.121,0.1185,0.1182,0.1287,0.1286,0.1285,0.1284,0.1284,0.1359,0.1355,0.1393,0.1407,0.1445,0.1511,0.1542,0.1618,0.1615,0.1625,0.1419,0.1458,0.1429,0.1414,0.1417,0.1575,0.1575,0.1575,0.1575,0.1369,0.1374,0.1428,0.1469,0.1514,0.1566,0.1696,0.1777,0.1681,0.1601,0.1482,0.142,0.1412,0.1376,0.1362,0.1359,0.15,0.1499,0.1499,0.1394,0.1409,0.145,0.1492,0.1547,0.1639,0.1781,0.1943,0.1755,0.148,0.1332,0.1336,0.1222,0.1219,0.1138,0.1127,0.1114,0,0]}],[{"header":{"parameterUnit":"m.s-1","parameterCategory":2,"la1":30.2992,"la2":30.254,"lo1":-89.0895,"lo2":-89.0443,"dy":0.0025,"dx":0.0025,"nx":19,"ny":19,"refTime":"2026-03-19T03:00:00:Z","depth":"2","parameterNumber":2,"parameterNumberName":"U-component_of_CURRENTS"},"data":[0,0,0,-0.0018,-0.0014,0.0178,0.0179,0.0397,0.0399,0,0,0,0,0,0,0,0,0,0,0,-0.0076,-0.0074,-0.0018,-0.0014,0.0178,0.0179,0.0397,0.0399,0,0,0,0,0,0,0,0,0,0,0,-0.0076,-0.0075,-0.0073,-0.0013,0.0177,0.0179,0.0397,0.0261,0,0,0,0,0,0,0,0,0,0,0.0079,0.0022,-0.0075,-0.0073,-0.0012,0.0177,0.0179,0.0254,0.0269,0.03,0,0.0337,0,0.0367,0.0412,0.0413,0,0,0,-0.0005,0.001,0.0063,-0.0073,-0.001,0.0177,0.0094,0.0263,0.0279,0.0319,0.0341,0.0349,0.037,0.0414,0.0415,0.0631,0.0632,0,0,-0.0016,-0.0042,0.0052,0.0074,0.005,0.0087,0.01,0.0273,0.0293,0.0341,0.0354,0.0374,0.0415,0.0416,0.063,0.0631,0,0,0,-0.0052,-0.005,0.0001,0.0065,0.0099,0.0093,0.0107,0.0285,0.0303,0.0357,0.0377,0.0416,0.0419,0.0629,0.063,0.0659,0,0,0,-0.0058,-0.0072,-0.0004,-0.0018,0.0095,0.0196,0.0114,0.0292,0.0312,0.0375,0.0416,0.042,0.0628,0.063,0.0656,0.0672,0,0,0,-0.0086,-0.0075,-0.0049,-0.002,0.0058,0.0194,0.0223,0.0297,0.0323,0.0413,0.0421,0.0627,0.0629,0.0653,0.0668,0.0729,0,0,0,-0.0126,-0.0067,-0.0049,0.0028,0.0056,0.0186,0.0222,0.0328,0.0405,0.0417,0.0628,0.063,0.0652,0.0666,0.0726,0.0673,0.0683,0,0,-0.0075,-0.0061,-0.0015,0.0005,0.0123,0.0159,0.0296,0.0406,0.0448,0.0568,0.0574,0.0657,0.0668,0.0729,0.0795,0.0801,0,0,0,-0.0015,0.0015,0.0055,0.013,0.0216,0.0309,0.0404,0.0461,0.059,0.0504,0.0692,0.0699,0.0736,0.0699,0.0704,0.064,0.064,0.064,0.064,-0.0013,0.0047,0.0132,0.0218,0.0298,0.0428,0.0516,0.0615,0.064,0.0705,0.0748,0.0849,0.081,0.0814,0.0775,0.0776,0.0776,0.0776,0.0776,0.0042,0.009,0.0175,0.0274,0.0375,0.0486,0.0646,0.0692,0.0841,0.0823,0.0857,0.0762,0.0821,0.0779,0.0778,0.0778,0.0778,0.0777,0.0777,0.0024,0.0061,0.0123,0.0256,0.0386,0.0519,0.0658,0.0774,0.0871,0.0926,0.0905,0.0903,0.0858,0.095,0.095,0.0951,0.0951,0.0951,0.0952,-0.0028,0.0043,0.0107,0.024,0.0319,0.0457,0.067,0.0762,0.089,0.0949,0.0949,0.0908,0.0903,0.087,0.0957,0.0956,0.0955,0.0955,0.0955,-0.0039,-0.0026,0.0067,0.0135,0.0303,0.0392,0.0571,0.0757,0.0881,0.0931,0.0969,0.0967,0.0958,0.0952,0.0922,0.1018,0.1018,0.1018,0.1018,-0.0078,-0.0054,0.0046,0.0133,0.0237,0.0365,0.0502,0.0694,0.0869,0.0925,0.0929,0.0857,0.0857,0.0838,0.0835,0.0801,0.0865,0.0865,0.0865,-0.0091,-0.0054,0.0004,0.0104,0.0211,0.0313,0.045,0.0674,0.0817,0.0858,0.0896,0.1009,0.091,0.0907,0.0881,0.0875,0.0822,0,0]},{"header":{"parameterUnit":"m.s-1","parameterCategory":2,"la1":30.2992,"la2":30.254,"lo1":-89.0895,"lo2":-89.0443,"dy":0.0025,"dx":0.0025,"nx":19,"ny":19,"refTime":"2026-03-19T03:00:00:Z","depth":"2","parameterNumber":3,"parameterNumberName":"V-component_of_CURRENTS"},"data":[0,0,0,-0.0328,-0.0326,-0.0237,-0.0237,-0.0242,-0.0242,0,0,0,0,0,0,0,0,0,0,0,-0.0359,-0.0358,-0.0328,-0.0326,-0.0237,-0.0237,-0.0242,-0.0242,0,0,0,0,0,0,0,0,0,0,0,-0.036,-0.0359,-0.0358,-0.0325,-0.0237,-0.0237,-0.0241,-0.0281,0,0,0,0,0,0,0,0,0,0,-0.0353,-0.035,-0.0359,-0.0357,-0.0325,-0.0238,-0.0237,-0.0282,-0.0279,-0.0312,0,-0.0286,0,-0.0262,-0.0244,-0.0244,0,0,0,-0.0335,-0.0352,-0.0338,-0.0357,-0.0324,-0.0238,-0.028,-0.0279,-0.0276,-0.0309,-0.0286,-0.0285,-0.0262,-0.0244,-0.0244,-0.0263,-0.0263,0,0,-0.0339,-0.0339,-0.034,-0.0336,-0.0288,-0.0282,-0.0277,-0.0276,-0.0264,-0.0286,-0.0285,-0.0263,-0.0244,-0.0245,-0.0263,-0.0263,0,0,0,-0.0347,-0.0342,-0.0326,-0.0337,-0.031,-0.028,-0.0273,-0.0264,-0.026,-0.0285,-0.0263,-0.0245,-0.0245,-0.0263,-0.0263,-0.0245,0,0,0,-0.0351,-0.0347,-0.0328,-0.0327,-0.0309,-0.0266,-0.0261,-0.026,-0.0259,-0.0263,-0.0245,-0.0245,-0.0263,-0.0263,-0.0245,-0.0203,0,0,0,-0.0366,-0.0348,-0.0336,-0.0327,-0.0285,-0.0265,-0.0261,-0.0259,-0.0246,-0.0244,-0.0245,-0.0263,-0.0263,-0.0246,-0.0205,-0.0161,0,0,0,-0.0373,-0.0345,-0.0335,-0.0295,-0.0286,-0.0258,-0.026,-0.0241,-0.0238,-0.0245,-0.0263,-0.0263,-0.0246,-0.0207,-0.0163,-0.0229,-0.0226,0,0,-0.0349,-0.0342,-0.0321,-0.031,-0.0278,-0.0272,-0.0245,-0.024,-0.0251,-0.0274,-0.0273,-0.0245,-0.0205,-0.0162,-0.0224,-0.0221,0,0,0,-0.032,-0.0306,-0.0295,-0.0266,-0.0251,-0.0226,-0.0227,-0.0232,-0.0235,-0.0244,-0.0249,-0.0224,-0.0197,-0.0241,-0.0239,-0.0263,-0.0263,-0.0263,-0.0263,-0.0305,-0.0291,-0.0257,-0.0239,-0.0221,-0.0205,-0.0189,-0.0196,-0.0231,-0.0229,-0.0213,-0.0168,-0.0218,-0.0216,-0.0236,-0.0236,-0.0236,-0.0236,-0.0236,-0.0278,-0.0258,-0.0231,-0.0197,-0.0177,-0.016,-0.0153,-0.0164,-0.0154,-0.0194,-0.017,-0.0225,-0.0212,-0.0234,-0.0234,-0.0235,-0.0235,-0.0235,-0.0235,-0.0285,-0.0271,-0.024,-0.0182,-0.0137,-0.0119,-0.006,-0.0079,-0.0109,-0.0092,-0.0134,-0.0136,-0.0128,-0.0087,-0.0087,-0.0086,-0.0086,-0.0086,-0.0085,-0.0306,-0.0272,-0.0218,-0.016,-0.0113,-0.0052,-0.0005,0.0014,-0.0031,-0.009,-0.0091,-0.0117,-0.0122,-0.0119,-0.008,-0.0081,-0.0081,-0.0082,-0.0082,-0.0301,-0.0278,-0.0206,-0.0149,-0.0035,0.0033,0.0069,0.0065,0.0068,0.0033,-0.0091,-0.0093,-0.0092,-0.0096,-0.0093,-0.0049,-0.0049,-0.0049,-0.0049,-0.0296,-0.0279,-0.0166,-0.0074,0.0019,0.0079,0.0125,0.0078,-0.0008,-0.0103,-0.01,-0.0172,-0.0173,-0.018,-0.0182,-0.0182,-0.0161,-0.0161,-0.0161,-0.0268,-0.0242,-0.0157,-0.0063,0.0045,0.0116,0.0127,0.0089,-0.0062,-0.0162,-0.0087,-0.0063,-0.0167,-0.0169,-0.0181,-0.0184,-0.0184,0,0]}],[{"header":{"parameterUnit":"m.s-1","parameterCategory":2,"la1":30.2992,"la2":30.254,"lo1":-89.0895,"lo2":-89.0443,"dy":0.0025,"dx":0.0025,"nx":19,"ny":19,"refTime":"2026-03-19T03:00:00:Z","depth":"4","parameterNumber":2,"parameterNumberName":"U-component_of_CURRENTS"},"data":[0,0,0,0.038,0.038,0.0404,0.0404,0.0377,0.0377,0,0,0,0,0,0,0,0,0,0,0,0.0374,0.0374,0.038,0.038,0.0404,0.0404,0.0377,0.0377,0,0,0,0,0,0,0,0,0,0,0,0.0374,0.0374,0.0374,0.038,0.0404,0.0404,0.0377,0.0374,0,0,0,0,0,0,0,0,0,0,0.0359,0.0366,0.0374,0.0375,0.0381,0.0404,0.0404,0.0375,0.0375,0.0349,0,0.0354,0,0.036,0.0373,0.0373,0,0,0,0.0384,0.0367,0.0366,0.0375,0.0381,0.0404,0.0394,0.0375,0.0375,0.0348,0.0354,0.0353,0.036,0.0373,0.0373,0.0342,0.0342,0,0,0.0382,0.0383,0.0367,0.0366,0.0387,0.0393,0.0395,0.0376,0.0378,0.0354,0.0353,0.036,0.0372,0.0372,0.0342,0.0342,0,0,0,0.0376,0.0383,0.0384,0.0367,0.0373,0.0394,0.0396,0.0379,0.0378,0.0353,0.0359,0.0372,0.0372,0.0342,0.0342,0.0366,0,0,0,0.0376,0.0379,0.0383,0.0385,0.0374,0.0385,0.04,0.0379,0.0377,0.0359,0.0372,0.0371,0.0342,0.0342,0.0365,0.0377,0,0,0,0.0373,0.0379,0.038,0.0385,0.0393,0.0386,0.0385,0.0379,0.038,0.0373,0.0371,0.0342,0.0342,0.0364,0.0376,0.0397,0,0,0,0.0375,0.0378,0.038,0.0385,0.0392,0.0395,0.0385,0.0388,0.0384,0.0372,0.0342,0.0342,0.0364,0.0375,0.0396,0.0373,0,0,0,0.0377,0.0378,0.038,0.0382,0.0385,0.0392,0.0395,0.0386,0.0376,0.0345,0.0344,0.0365,0.0376,0.0397,0.038,0,0,0,0,0.0379,0.0377,0.038,0.0383,0.0388,0.0397,0.0391,0.0385,0.0378,0.0373,0.0361,0.0367,0.0379,0.0363,0.0343,0.0343,0.0343,0.0343,0.0343,0.0356,0.0365,0.037,0.038,0.0385,0.0394,0.04,0.0389,0.0377,0.038,0.0383,0.0411,0.0393,0.0378,0.0378,0.0378,0.0378,0.0378,0.0379,0.0346,0.0344,0.0362,0.0374,0.0386,0.039,0.0395,0.0399,0.0409,0.0394,0.0405,0.0385,0.0381,0.038,0.038,0.038,0.038,0.0379,0.0379,0.0317,0.0323,0.0342,0.0362,0.0377,0.0393,0.0411,0.0423,0.0429,0.0445,0.0437,0.0429,0.0432,0.046,0.046,0.046,0.046,0.046,0.046,0.0283,0.0305,0.0317,0.0345,0.0358,0.0384,0.0426,0.0448,0.047,0.0463,0.0462,0.0438,0.0435,0.0436,0.0463,0.0462,0.0462,0.0462,0.0462,0.0252,0.0262,0.0284,0.0298,0.0334,0.0355,0.0403,0.0465,0.049,0.0506,0.0469,0.0468,0.0459,0.0456,0.0457,0.0491,0.0491,0.0491,0,0.022,0.0229,0.0257,0.0277,0.0299,0.0335,0.038,0.0431,0.0465,0.0445,0.0479,0.0432,0.0432,0.0418,0.0415,0.0414,0,0,0,0.0199,0.0216,0.0228,0.026,0.0283,0.034,0.0394,0.0412,0.0448,0.0499,0.0487,0.0488,0.0486,0.0469,0.0454,0.0451,0.0451,0,0]},{"header":{"parameterUnit":"m.s-1","parameterCategory":2,"la1":30.2992,"la2":30.254,"lo1":-89.0895,"lo2":-89.0443,"dy":0.0025,"dx":0.0025,"nx":19,"ny":19,"refTime":"2026-03-19T03:00:00:Z","depth":"4","parameterNumber":3,"parameterNumberName":"V-component_of_CURRENTS"},"data":[0,0,0,-0.0564,-0.0566,-0.062,-0.0619,-0.0644,-0.0645,0,0,0,0,0,0,0,0,0,0,0,-0.0529,-0.053,-0.0564,-0.0566,-0.062,-0.0619,-0.0644,-0.0645,0,0,0,0,0,0,0,0,0,0,0,-0.0529,-0.053,-0.0531,-0.0567,-0.062,-0.0619,-0.0644,-0.0609,0,0,0,0,0,0,0,0,0,0,-0.056,-0.0555,-0.053,-0.0531,-0.0567,-0.062,-0.0619,-0.0608,-0.0611,-0.0615,0,-0.0631,0,-0.0656,-0.0648,-0.0648,0,0,0,-0.0543,-0.0553,-0.0562,-0.0531,-0.0568,-0.062,-0.0589,-0.061,-0.0614,-0.062,-0.0631,-0.0633,-0.0657,-0.0648,-0.0648,-0.0686,-0.0686,0,0,-0.054,-0.0542,-0.056,-0.0565,-0.0591,-0.0587,-0.0591,-0.0613,-0.0623,-0.0632,-0.0634,-0.0657,-0.0648,-0.0648,-0.0686,-0.0686,0,0,0,-0.0547,-0.054,-0.0549,-0.0563,-0.0587,-0.059,-0.0593,-0.0621,-0.0624,-0.0635,-0.0657,-0.0648,-0.0649,-0.0686,-0.0686,-0.0694,0,0,0,-0.0544,-0.0546,-0.0548,-0.0549,-0.0587,-0.0616,-0.0602,-0.0621,-0.0626,-0.0657,-0.0648,-0.0649,-0.0686,-0.0686,-0.0694,-0.0672,0,0,0,-0.0525,-0.0544,-0.0552,-0.0549,-0.0585,-0.0616,-0.0619,-0.0622,-0.064,-0.0648,-0.0649,-0.0686,-0.0686,-0.0693,-0.0672,-0.0652,0,0,0,-0.0522,-0.0526,-0.0552,-0.0558,-0.0584,-0.0604,-0.0619,-0.0639,-0.0645,-0.0649,-0.0686,-0.0686,-0.0693,-0.0672,-0.0652,-0.055,0,0,0,-0.0517,-0.0526,-0.0524,-0.0549,-0.0558,-0.0594,-0.0611,-0.0631,-0.0649,-0.0671,-0.0673,-0.0694,-0.0672,-0.0652,-0.0565,0,0,0,0,-0.0515,-0.0515,-0.0519,-0.0538,-0.0562,-0.0588,-0.0624,-0.0642,-0.0672,-0.0661,-0.0696,-0.0682,-0.0669,-0.0611,-0.0687,-0.0687,-0.0687,-0.0687,-0.0687,-0.0511,-0.0512,-0.0513,-0.0522,-0.0543,-0.0592,-0.0608,-0.0644,-0.067,-0.069,-0.0692,-0.0683,-0.0624,-0.0708,-0.0708,-0.0708,-0.0709,-0.0709,-0.0709,-0.0494,-0.0488,-0.0507,-0.0511,-0.0546,-0.0576,-0.0615,-0.0642,-0.0668,-0.0695,-0.0683,-0.0628,-0.0709,-0.0709,-0.0709,-0.0709,-0.0709,-0.0709,-0.0709,-0.0481,-0.0477,-0.0494,-0.0508,-0.0536,-0.0572,-0.0571,-0.0618,-0.0658,-0.066,-0.0592,-0.0673,-0.0667,-0.0663,-0.0663,-0.0663,-0.0663,-0.0663,-0.0663,-0.0463,-0.0474,-0.0478,-0.0496,-0.0508,-0.0523,-0.0549,-0.0547,-0.0591,-0.0565,-0.0658,-0.0666,-0.0668,-0.0663,-0.066,-0.066,-0.0661,-0.0661,-0.0661,-0.0425,-0.0447,-0.0438,-0.0448,-0.0459,-0.0455,-0.048,-0.0448,-0.0437,-0.0424,-0.051,-0.0519,-0.0496,-0.0501,-0.049,-0.0435,-0.0433,-0.0432,0,-0.0403,-0.041,-0.0403,-0.04,-0.0386,-0.0411,-0.0345,-0.0346,-0.0384,-0.0379,-0.0469,-0.057,-0.0574,-0.0554,-0.0556,-0.0544,0,0,0,-0.0376,-0.0377,-0.0362,-0.0371,-0.0357,-0.0325,-0.0327,-0.0304,-0.038,-0.032,-0.0397,-0.0407,-0.0544,-0.0652,-0.0636,-0.0638,-0.0629,0,0]}]]